Greenville, SC

5:41 PM EDT on August 29, 2016 (GMT -0400)
Greenville Downtown

Weather History for KGMU - April, 2013

Change the Weather History Date:

Friday, April 12, 2013

  Actual Average Record
Temperature  
Mean Temperature 70 °F -  
Max Temperature 79 °F 69 °F 82 °F (2001)
Min Temperature 61 °F 49 °F 37 °F (2012)
Cooling Degree Days 6    
Growing Degree Days 20 (Base 50)    
Moisture  
Dew Point 55 °F    
Average Humidity 71    
Maximum Humidity 94    
Minimum Humidity 22    
Precipitation  
Precipitation 1.14 in - - ()
Sea Level Pressure  
Sea Level Pressure 29.72 in    
Wind  
Wind Speed 14 mph (SW)    
Max Wind Speed 23 mph    
Max Gust Speed 38 mph    
Visibility 8 miles    
Events Rain , Thunderstorm    
Averages and records for this station are not official NWS values.
T = Trace of Precipitation, MM = Missing Value Source: NWS Daily Summary

Daily Weather History Graph

Daily Weather History Graph

Search for Another Location

Airport or City:

Trip Planner

Search our weather history database for the weather conditions in past years. The results will help you decide how hot, cold, wet, or windy it might be!

Date:

Astronomy

Apr. 12, 2013 Rise Set
Actual Time 7:01 AM EDT 7:59 PM EDT
Civil Twilight 6:35 AM EDT 8:25 PM EDT
Nautical Twilight 6:04 AM EDT 8:56 PM EDT
Astronomical Twilight 5:33 AM EDT 9:27 PM EDT
Moon 8:15 AM EDT (4/12) 10:23 PM EDT (4/12)
Length of Visible Light 13h 50m
Length of Day
12h 58m
Waxing Crescent, 5% of the Moon is Illuminated
Apr 12
Waxing Crescent
Apr 18
First Quarter
Apr 25
Full
May 2
Last Quarter
May 9
New

Hourly Weather History & Observations

Time (EDT) Temp. Dew Point Humidity Pressure Visibility Wind Dir Wind Speed Gust Speed Precip Events Conditions
12:18 AM 68.0 °F 66.2 °F 94% 29.74 in 6.0 mi South 13.8 mph - 0.07 in Rain Light Rain
12:33 AM 69.8 °F 66.2 °F 88% 29.74 in 5.0 mi South 18.4 mph 27.6 mph 0.12 in Rain , Thunderstorm Rain
12:40 AM 69.8 °F 66.2 °F 88% 29.73 in 4.0 mi South 20.7 mph 33.4 mph 0.16 in Rain , Thunderstorm Rain
12:46 AM 68.0 °F 64.4 °F 88% 29.73 in 1.8 mi South 21.9 mph 38.0 mph 0.28 in Rain , Thunderstorm Heavy Thunderstorms and Rain
12:53 AM 68.0 °F 64.9 °F 90% 29.70 in 3.0 mi South 13.8 mph 28.8 mph 0.29 in Rain , Thunderstorm Light Thunderstorms and Rain
1:01 AM 68.0 °F 64.4 °F 88% 29.73 in 5.0 mi SSW 19.6 mph 28.8 mph 0.05 in Rain , Thunderstorm Heavy Thunderstorms and Rain
1:08 AM 68.0 °F 64.4 °F 88% 29.73 in 4.0 mi SSW 19.6 mph 33.4 mph 0.06 in Rain , Thunderstorm Light Thunderstorms and Rain
1:38 AM 68.0 °F 64.4 °F 88% 29.78 in 2.5 mi West 23.0 mph 34.5 mph 0.23 in Rain , Thunderstorm Heavy Rain
1:46 AM 64.4 °F 60.8 °F 88% 29.78 in 1.0 mi WSW 20.7 mph 33.4 mph 0.45 in Rain , Thunderstorm Heavy Rain
1:53 AM 63.0 °F 61.0 °F 93% 29.75 in 1.2 mi West 13.8 mph 33.4 mph 0.63 in Rain , Thunderstorm Heavy Rain
2:03 AM 62.6 °F 60.8 °F 94% 29.77 in 3.0 mi West 11.5 mph 23.0 mph 0.07 in Rain , Thunderstorm Heavy Thunderstorms and Rain
2:11 AM 62.6 °F 60.8 °F 94% 29.75 in 2.5 mi WSW 11.5 mph - 0.14 in Rain , Thunderstorm Heavy Thunderstorms and Rain
2:19 AM 62.6 °F 60.8 °F 94% 29.74 in 4.0 mi WSW 9.2 mph 17.3 mph 0.19 in Rain , Thunderstorm Heavy Thunderstorms and Rain
2:29 AM 62.6 °F 60.8 °F 94% 29.72 in 6.0 mi SW 5.8 mph - 0.21 in Rain Rain
2:53 AM 63.0 °F 60.1 °F 90% 29.70 in 10.0 mi West 4.6 mph - 0.22 in Rain Light Rain
3:24 AM 62.6 °F 60.8 °F 94% 29.72 in 10.0 mi SW 4.6 mph - 0.00 in   Overcast
3:53 AM 63.0 °F 61.0 °F 93% 29.67 in 10.0 mi SW 4.6 mph - 0.00 in   Overcast
4:05 AM 62.6 °F 60.8 °F 94% 29.69 in 10.0 mi SW 4.6 mph - N/A   Overcast
4:20 AM 62.6 °F 60.8 °F 94% 29.69 in 10.0 mi SW 6.9 mph - N/A   Mostly Cloudy
4:53 AM 63.0 °F 61.0 °F 93% 29.66 in 10.0 mi South 8.1 mph - N/A   Mostly Cloudy
5:30 AM 64.4 °F 62.6 °F 94% 29.69 in 10.0 mi SSW 8.1 mph - 0.00 in Rain Light Rain
5:53 AM 64.9 °F 62.1 °F 90% 29.67 in 10.0 mi SSW 16.1 mph 21.9 mph 0.00 in   Overcast
6:00 AM 64.4 °F 62.6 °F 94% 29.70 in 10.0 mi SSW 12.7 mph 21.9 mph 0.00 in Rain Light Rain
6:53 AM 64.9 °F 62.1 °F 90% 29.68 in 10.0 mi SSW 11.5 mph - 0.00 in   Overcast
7:01 AM 64.4 °F 62.6 °F 94% 29.70 in 10.0 mi SW 15.0 mph 20.7 mph N/A   Overcast
7:53 AM 64.9 °F 62.1 °F 90% 29.69 in 10.0 mi SW 11.5 mph - N/A   Mostly Cloudy
8:11 AM 66.2 °F 62.6 °F 88% 29.72 in 10.0 mi SW 12.7 mph - N/A   Scattered Clouds
8:53 AM 66.9 °F 61.0 °F 81% 29.70 in 10.0 mi SW 10.4 mph - N/A   Partly Cloudy
9:53 AM 70.0 °F 60.1 °F 71% 29.71 in 10.0 mi WSW 10.4 mph - N/A   Partly Cloudy
10:53 AM 72.0 °F 55.9 °F 57% 29.71 in 10.0 mi West 15.0 mph 24.2 mph N/A   Partly Cloudy
11:53 AM 75.9 °F 55.0 °F 48% 29.71 in 10.0 mi SW 17.3 mph 26.5 mph N/A   Scattered Clouds
12:53 PM 78.1 °F 48.0 °F 35% 29.71 in 10.0 mi WSW 20.7 mph 28.8 mph N/A   Clear
1:53 PM 79.0 °F 41.0 °F 26% 29.70 in 10.0 mi WSW 19.6 mph 32.2 mph N/A   Clear
2:53 PM 78.1 °F 39.9 °F 25% 29.70 in 10.0 mi SW 20.7 mph 28.8 mph N/A   Clear
3:53 PM 79.0 °F 39.0 °F 24% 29.70 in 10.0 mi SW 19.6 mph 25.3 mph N/A   Clear
4:53 PM 77.0 °F 36.0 °F 23% 29.70 in 10.0 mi SW 19.6 mph 26.5 mph N/A   Clear
5:53 PM 75.9 °F 34.0 °F 22% 29.71 in 10.0 mi West 17.3 mph 25.3 mph N/A   Clear
6:53 PM 73.9 °F 35.1 °F 24% 29.72 in 10.0 mi SW 13.8 mph 21.9 mph N/A   Clear
7:53 PM 70.0 °F 36.0 °F 29% 29.75 in 10.0 mi WSW 9.2 mph - N/A   Clear
8:53 PM 66.9 °F 33.1 °F 28% 29.78 in 10.0 mi West 13.8 mph 21.9 mph N/A   Clear
9:53 PM 64.0 °F 35.1 °F 34% 29.80 in 10.0 mi West 11.5 mph - N/A   Clear
10:53 PM 62.1 °F 34.0 °F 35% 29.82 in 10.0 mi NW 6.9 mph - N/A   Clear
11:53 PM 61.0 °F 33.1 °F 35% 29.83 in 10.0 mi WNW 4.6 mph - N/A   Clear